GW2822 Weather Reports


time (UTC)temp
C
wind
direction
speed
KPH
gust
KPH
rain 1hr
cm
rain 24hr
cm
rain mn
cm
humidity
%
barometer
mb
20260504050527 17 171 6.4 12.9 0.00 0.00 0.00 70 1015.6
20260504050020 18 142 4.8 16.1 0.00 0.00 0.00 70 1015.6
20260504045531 18 184 6.4 17.7 0.00 0.00 0.00 70 1015.6
20260504045043 18 134 8.0 17.7 0.00 0.00 0.00 69 1015.5
20260504044511 18 135 6.4 16.1 0.00 0.00 0.00 69 1015.6
20260504044013 18 144 6.4 14.5 0.00 0.00 0.00 69 1015.6
20260504043532 18 165 4.8 12.9 0.00 0.00 0.00 69 1015.7
20260504043054 18 125 4.8 12.9 0.00 0.00 0.00 69 1015.7
20260504042504 18 109 6.4 14.5 0.00 0.00 0.00 69 1015.5
20260504042013 18 159 4.8 14.5 0.00 0.00 0.00 69 1015.7
20260504041539 18 152 8.0 14.5 0.00 0.00 0.00 68 1015.7
20260504041039 18 142 3.2 12.9 0.00 0.00 0.00 68 1015.7
20260504040559 17 161 4.8 12.9 0.00 0.00 0.00 68 1015.7
20260504040050 17 180 3.2 11.3 0.00 0.00 0.00 68 1015.8
20260504035507 17 136 3.2 12.9 0.00 0.00 0.00 68 1015.7
20260504035018 17 126 4.8 12.9 0.00 0.00 0.00 67 1015.7
20260504034539 17 140 6.4 11.3 0.00 0.00 0.00 68 1015.7
20260504034048 17 157 4.8 11.3 0.00 0.00 0.00 68 1015.8
20260504033557 16 169 1.6 11.3 0.00 0.00 0.00 68 1015.7
20260504033018 16 148 3.2 11.3 0.00 0.00 0.00 70 1015.7
20260504032528 16 141 1.6 12.9 0.00 0.00 0.00 71 1015.8
20260504032043 16 155 3.2 12.9 0.00 0.00 0.00 72 1015.7
20260504031553 15 105 4.8 12.9 0.00 0.00 0.00 74 1015.6
20260504031011 16 130 0.0 0.0 0.00 0.00 0.00 73 1015.4
20260504030521 16 130 0.0 0.0 0.00 0.00 0.00 73 1015.4
20260504030017 16 130 0.0 0.0 0.00 0.00 0.00 73 1015.4
20260504025531 16 130 0.0 0.0 0.00 0.00 0.00 72 1015.6
20260504025045 16 130 0.0 0.0 0.00 0.00 0.00 71 1015.6
20260504024558 16 130 0.0 0.0 0.00 0.00 0.00 70 1015.7
20260504024506 16 130 0.0 0.0 0.00 0.00 0.00 70 1015.6
20260504024021 17 130 0.0 0.0 0.00 0.00 0.00 68 1015.6
20260504023539 17 130 0.0 0.0 0.00 0.00 0.00 68 1015.6
20260504023049 17 130 0.0 0.0 0.00 0.00 0.00 68 1015.5
20260504022505 17 130 0.0 0.0 0.00 0.00 0.00 67 1015.5
20260504022016 18 130 0.0 0.0 0.00 0.00 0.00 64 1015.5
20260504021528 18 130 0.0 0.0 0.00 0.00 0.00 63 1015.5
20260504021047 18 130 0.0 0.0 0.00 0.00 0.00 63 1015.5
20260504020503 18 130 0.0 0.0 0.00 0.00 0.00 61 1015.5
20260504020105 19 130 0.0 0.0 0.00 0.00 0.00 59 1015.6
20260504015509 19 130 0.0 0.0 0.00 0.00 0.00 60 1015.5
20260504015022 20 130 0.0 0.0 0.00 0.00 0.00 58 1015.5
20260504014541 20 130 0.0 1.6 0.00 0.00 0.00 55 1015.4
20260504014051 20 130 0.0 1.6 0.00 0.00 0.00 56 1015.3
20260504013510 20 130 0.0 1.6 0.00 0.00 0.00 57 1015.3
20260504013031 20 130 0.0 1.6 0.00 0.00 0.00 52 1015.2
20260504012537 21 130 0.0 1.6 0.00 0.00 0.00 51 1015.1
20260504012051 21 130 0.0 1.6 0.00 0.00 0.00 51 1015.1
20260504011504 21 130 0.0 3.2 0.00 0.00 0.00 50 1015.2
20260504011018 21 130 0.0 11.3 0.00 0.00 0.00 50 1015.0
20260504010529 21 128 3.2 11.3 0.00 0.00 0.00 49 1015.0
20260504010023 21 147 3.2 11.3 0.00 0.00 0.00 49 1014.9
20260504005537 21 121 3.2 11.3 0.00 0.00 0.00 49 1014.9
20260504005053 21 151 3.2 11.3 0.00 0.00 0.00 49 1014.9
20260504004511 22 123 3.2 12.9 0.00 0.00 0.00 49 1014.9
20260504004018 22 161 4.8 12.9 0.00 0.00 0.00 49 1014.9
20260504003532 22 144 1.6 11.3 0.00 0.00 0.00 49 1015.0
20260504003046 22 161 4.8 8.0 0.00 0.00 0.00 49 1015.1
20260504002505 22 155 1.6 14.5 0.00 0.00 0.00 49 1015.1
20260504002017 22 131 3.2 16.1 0.00 0.00 0.00 47 1015.2
20260504001535 22 159 6.4 16.1 0.00 0.00 0.00 47 1015.3
20260504001048 22 151 8.0 14.5 0.00 0.00 0.00 46 1015.3
20260504000508 22 111 8.0 16.1 0.00 0.00 0.00 46 1015.3
20260504000106 23 115 6.4 16.1 0.00 0.00 0.00 46 1015.4
20260504000004 23 130 6.4 16.1 0.00 0.00 0.00 45 1015.5
20260503235512 23 153 4.8 19.3 0.00 0.00 0.00 45 1015.4
20260503235027 23 119 9.7 19.3 0.00 0.00 0.00 44 1015.5
20260503234536 23 130 6.4 22.5 0.00 0.00 0.00 46 1015.5
20260503234055 23 163 4.8 22.5 0.00 0.00 0.00 45 1015.5
20260503233508 23 167 8.0 22.5 0.00 0.00 0.00 44 1015.6
20260503233024 23 126 9.7 22.5 0.00 0.00 0.00 44 1015.7
20260503232536 24 155 9.7 19.3 0.00 0.00 0.00 42 1015.6
20260503232052 24 111 8.0 14.5 0.00 0.00 0.00 44 1015.6
20260503231505 24 137 9.7 22.5 0.00 0.00 0.00 42 1015.6
20260503231018 24 149 9.7 17.7 0.00 0.00 0.00 43 1015.6
20260503230528 24 147 9.7 22.5 0.00 0.00 0.00 43 1015.6
20260503230036 24 169 8.0 22.5 0.00 0.00 0.00 43 1015.6
20260503225532 24 143 9.7 20.9 0.00 0.00 0.00 42 1015.7
20260503225048 24 136 8.0 20.9 0.00 0.00 0.00 44 1015.7
20260503224606 24 138 9.7 19.3 0.00 0.00 0.00 42 1015.7
20260503224505 24 115 9.7 19.3 0.00 0.00 0.00 43 1015.7
20260503224020 24 141 9.7 19.3 0.00 0.00 0.00 42 1015.6
20260503223532 24 174 9.7 19.3 0.00 0.00 0.00 42 1015.7
20260503223043 24 129 9.7 22.5 0.00 0.00 0.00 43 1015.7
20260503222555 24 129 11.3 22.5 0.00 0.00 0.00 43 1015.9
20260503222010 24 169 11.3 27.4 0.00 0.00 0.00 42 1016.0
20260503221532 24 154 6.4 27.4 0.00 0.00 0.00 41 1016.1
20260503221046 25 145 9.7 24.1 0.00 0.00 0.00 42 1016.2
20260503220558 25 182 12.9 24.1 0.00 0.00 0.00 42 1016.3
20260503220048 24 175 12.9 22.5 0.00 0.00 0.00 44 1016.4
20260503215506 24 125 9.7 25.7 0.00 0.00 0.00 42 1016.4
20260503215024 25 159 14.5 25.7 0.00 0.00 0.00 40 1016.3
20260503214539 25 155 8.0 22.5 0.00 0.00 0.00 42 1016.5
20260503214048 25 115 4.8 20.9 0.00 0.00 0.00 43 1016.6
20260503213558 25 173 8.0 19.3 0.00 0.00 0.00 43 1016.9
20260503213016 25 166 9.7 19.3 0.00 0.00 0.00 43 1016.8
20260503212528 25 205 4.8 20.9 0.00 0.00 0.00 41 1016.8
20260503212042 25 147 12.9 20.9 0.00 0.00 0.00 38 1016.9
20260503211552 25 159 8.0 22.5 0.00 0.00 0.00 41 1016.9
20260503211015 25 189 9.7 22.5 0.00 0.00 0.00 41 1017.1
20260503210521 25 169 8.0 27.4 0.00 0.00 0.00 44 1017.2
20260503210012 25 141 9.7 27.4 0.00 0.00 0.00 41 1017.3
20260503205522 25 132 9.7 19.3 0.00 0.00 0.00 43 1017.5
20260503205038 25 149 6.4 19.3 0.00 0.00 0.00 44 1017.7
20260503204611 25 128 6.4 20.9 0.00 0.00 0.00 43 1017.6
20260503204005 25 171 9.7 20.9 0.00 0.00 0.00 41 1017.8
20260503203519 25 180 8.0 20.9 0.00 0.00 0.00 42 1017.9
20260503203036 24 184 8.0 20.9 0.00 0.00 0.00 44 1018.0
20260503202547 24 157 9.7 20.9 0.00 0.00 0.00 42 1018.2
20260503202102 24 132 11.3 22.5 0.00 0.00 0.00 41 1018.2
20260503202002 25 119 11.3 22.5 0.00 0.00 0.00 41 1018.2
20260503201516 25 171 14.5 22.5 0.00 0.00 0.00 42 1018.4
20260503201029 25 202 8.0 19.3 0.00 0.00 0.00 44 1018.5
20260503200540 24 175 9.7 24.1 0.00 0.00 0.00 42 1018.4
20260503200036 24 146 14.5 24.1 0.00 0.00 0.00 41 1018.5
20260503195549 24 194 6.4 19.3 0.00 0.00 0.00 47 1018.4
20260503195059 24 115 9.7 22.5 0.00 0.00 0.00 39 1018.5
20260503195002 24 125 12.9 22.5 0.00 0.00 0.00 41 1018.6
20260503194515 24 200 4.8 22.5 0.00 0.00 0.00 41 1018.7
20260503194026 24 200 9.7 20.9 0.00 0.00 0.00 42 1018.8
20260503193543 24 136 8.0 24.1 0.00 0.00 0.00 40 1018.9
20260503193059 24 130 12.9 24.1 0.00 0.00 0.00 41 1018.9
20260503192509 24 153 9.7 19.3 0.00 0.00 0.00 42 1019.0
20260503192025 24 197 4.8 20.9 0.00 0.00 0.00 44 1019.0
20260503191604 24 130 11.3 20.9 0.00 0.00 0.00 43 1019.0
20260503191049 24 184 8.0 22.5 0.00 0.00 0.00 42 1019.1
20260503190505 24 159 9.7 19.3 0.00 0.00 0.00 39 1019.2
20260503190054 24 183 12.9 24.1 0.00 0.00 0.00 40 1019.3
20260503185509 23 163 14.5 24.1 0.00 0.00 0.00 41 1019.4
20260503185021 23 178 11.3 20.9 0.00 0.00 0.00 40 1019.3
20260503184537 23 129 11.3 20.9 0.00 0.00 0.00 43 1019.5
20260503184048 23 207 9.7 22.5 0.00 0.00 0.00 40 1019.6
20260503183602 23 106 12.9 22.5 0.00 0.00 0.00 40 1019.7
20260503183502 23 150 11.3 22.5 0.00 0.00 0.00 41 1019.7
20260503183016 23 148 12.9 20.9 0.00 0.00 0.00 43 1019.8
20260503182525 23 176 11.3 20.9 0.00 0.00 0.00 41 1019.8
20260503182043 23 160 9.7 20.9 0.00 0.00 0.00 45 1019.9
20260503181552 23 105 12.9 20.9 0.00 0.00 0.00 41 1020.0
20260503181006 23 171 8.0 25.7 0.00 0.00 0.00 44 1020.0
20260503180515 23 189 11.3 25.7 0.00 0.00 0.00 42 1020.3
20260503180013 23 134 8.0 22.5 0.00 0.00 0.00 43 1020.3
20260503175526 23 176 12.9 22.5 0.00 0.00 0.00 44 1020.4
20260503175041 23 130 12.9 19.3 0.00 0.00 0.00 44 1020.6
20260503174554 23 146 4.8 25.7 0.00 0.00 0.00 44 1020.5
20260503174007 23 153 8.0 30.6 0.00 0.00 0.00 44 1020.8
20260503173517 23 174 12.9 30.6 0.00 0.00 0.00 43 1020.9
20260503173031 23 98 8.0 19.3 0.00 0.00 0.00 46 1020.8
20260503172541 23 168 9.7 19.3 0.00 0.00 0.00 47 1021.0
20260503172058 23 178 6.4 19.3 0.00 0.00 0.00 45 1021.1
20260503171513 23 148 11.3 25.7 0.00 0.00 0.00 44 1021.1
20260503171021 23 140 14.5 25.7 0.00 0.00 0.00 47 1021.2
20260503170537 22 200 8.0 22.5 0.00 0.00 0.00 49 1021.3
20260503150504 20 229 8.0 16.1 0.00 0.00 0.00 64 1021.9
20260503131014 9 11 0.0 0.0 0.00 0.00 0.00 95 1021.4
20260503130522 8 11 0.0 0.0 0.00 0.00 0.00 95 1021.3
20260503110556 6 11 0.0 0.0 0.00 0.00 0.00 93 1020.6
20260503081555 7 11 0.0 0.0 0.00 0.00 0.00 91 1020.0
20260503081011 7 11 0.0 0.0 0.00 0.00 0.00 91 1020.1
20260503080523 8 11 0.0 0.0 0.00 0.00 0.00 91 1020.1
20260503072559 8 11 0.0 0.0 0.00 0.00 0.00 91 1020.4
20260503072010 8 11 0.0 0.0 0.00 0.00 0.00 91 1020.5
20260503071522 8 11 0.0 0.0 0.00 0.00 0.00 91 1020.6
20260503071032 8 11 0.0 0.0 0.00 0.00 0.00 91 1020.6
20260503070546 8 11 0.0 0.0 0.00 0.00 0.00 91 1020.7